Change the Weather History Date:

Tuesday, March 26, 2013

  Actual Average Record
Temperature  
Mean Temperature 40 °F -  
Max Temperature 48 °F 65 °F 84 °F (1949)
Min Temperature 32 °F 42 °F 22 °F (1955)
Degree Days  
Heating Degree Days 25    
Moisture  
Dew Point 23 °F    
Average Humidity 52    
Maximum Humidity 73    
Minimum Humidity 34    
Precipitation  
Precipitation 0.00 in - - ()
Sea Level Pressure  
Sea Level Pressure 30.06 in    
Wind  
Wind Speed 11 mph (WNW)    
Max Wind Speed 16 mph    
Max Gust Speed 23 mph    
Visibility 10 miles    
Events      
Averages and records for this station are not official NWS values.
T = Trace of Precipitation, MM = Missing Value Source: NWS Daily Summary

Daily Weather History Graph

Daily Weather History Graph

Search for Another Location

Airport or City:

Trip Planner

Search our weather history database for the weather conditions in past years. The results will help you decide how hot, cold, wet, or windy it might be!

Date:

Astronomy

Mar. 26, 2013 Rise Set
Actual Time 7:25 AM EDT 7:47 PM EDT
Civil Twilight 7:00 AM EDT 8:12 PM EDT
Nautical Twilight 6:31 AM EDT 8:42 PM EDT
Astronomical Twilight 6:01 AM EDT 9:12 PM EDT
Moon 7:22 PM EDT (3/26) 6:40 AM EDT (3/26)
Length of Visible Light 13h 11m
Length of Day
12h 21m
Waxing Gibbous, 99% of the Moon is Illuminated
Mar 26
Waxing Gibbous
Mar 27
Full
Apr 3
Last Quarter
Apr 10
New
Apr 18
First Quarter

Hourly Weather History & Observations

Time (EDT) Temp. Windchill Dew Point Humidity Pressure Visibility Wind Dir Wind Speed Gust Speed Precip Events Conditions
12:56 AM 35.1 °F 27.4 °F 21.9 °F 59% 30.00 in 10.0 mi West 10.4 mph - N/A   Clear
1:56 AM 34.0 °F 26.6 °F 21.9 °F 61% 30.00 in 10.0 mi West 9.2 mph - N/A   Clear
2:56 AM 34.0 °F 25.5 °F 21.9 °F 61% 29.99 in 10.0 mi West 11.5 mph - N/A   Clear
3:56 AM 34.0 °F 24.6 °F 23.0 °F 64% 29.97 in 10.0 mi West 13.8 mph 23.0 mph N/A   Clear
4:56 AM 33.1 °F 24.4 °F 23.0 °F 66% 29.96 in 10.0 mi West 11.5 mph - N/A   Clear
5:56 AM 33.1 °F 24.9 °F 23.0 °F 66% 29.97 in 10.0 mi West 10.4 mph - N/A   Clear
6:56 AM 33.1 °F 23.4 °F 23.0 °F 66% 29.98 in 10.0 mi West 13.8 mph 18.4 mph N/A   Clear
7:56 AM 32.0 °F 25.6 °F 24.1 °F 73% 30.00 in 10.0 mi West 6.9 mph - N/A   Clear
8:56 AM 37.0 °F 29.8 °F 25.0 °F 62% 30.02 in 10.0 mi West 10.4 mph - N/A   Clear
9:56 AM 39.9 °F 31.8 °F 24.1 °F 53% 30.04 in 10.0 mi West 15.0 mph - N/A   Clear
10:56 AM 43.0 °F 36.4 °F 21.9 °F 43% 30.05 in 10.0 mi WNW 12.7 mph 19.6 mph N/A   Partly Cloudy
11:56 AM 45.0 °F 40.6 °F 21.0 °F 39% 30.06 in 10.0 mi WNW 8.1 mph 18.4 mph N/A   Overcast
12:56 PM 46.9 °F - 21.0 °F 36% 30.06 in 10.0 mi WNW 16.1 mph 20.7 mph N/A   Overcast
1:56 PM 48.0 °F - 21.9 °F 36% 30.06 in 10.0 mi West 11.5 mph 17.3 mph N/A   Scattered Clouds
2:56 PM 48.0 °F - 21.0 °F 34% 30.06 in 10.0 mi West 16.1 mph 23.0 mph N/A   Overcast
3:56 PM 48.0 °F - 21.0 °F 34% 30.06 in 10.0 mi NNW 10.4 mph - N/A   Overcast
4:56 PM 48.0 °F - 21.9 °F 36% 30.07 in 10.0 mi WNW 12.7 mph 20.7 mph N/A   Overcast
5:56 PM 48.9 °F - 21.9 °F 35% 30.09 in 10.0 mi WNW 16.1 mph 21.9 mph N/A   Overcast
6:56 PM 46.9 °F - 21.9 °F 37% 30.12 in 10.0 mi WNW 12.7 mph - N/A   Mostly Cloudy
7:56 PM 43.0 °F 38.2 °F 23.0 °F 45% 30.15 in 10.0 mi WNW 8.1 mph - N/A   Clear
8:56 PM 39.9 °F 32.9 °F 25.0 °F 55% 30.17 in 10.0 mi WNW 11.5 mph - N/A   Clear
9:56 PM 39.0 °F 34.0 °F 25.0 °F 57% 30.20 in 10.0 mi WNW 6.9 mph - N/A   Clear
10:56 PM 36.0 °F 31.1 °F 25.0 °F 64% 30.22 in 10.0 mi WNW 5.8 mph - N/A   Clear
11:56 PM 36.0 °F 31.1 °F 24.1 °F 62% 30.22 in 10.0 mi WNW 5.8 mph - N/A   Clear